Regional Weather Roundup
Issued by NWS Midland/Odessa, TX

Home | Current Version | Previous Version | Text Only | Print | Product List | Glossary On
Versions: 1 2 3 4 5 6 7 8 9 10 11 12 13 14 15 16 17 18 19 20 21 22 23 24 25 26 27 28 29 30 31 32 33 34 35 36 37 38 39 40 41 42 43 44 45 46 47 48 49 50
000
ASUS44 KMAF 261910
RWRMAF
MIDLAND AREA WEATHER ROUNDUP
NATIONAL WEATHER SERVICE MIDLAND TX
200 PM CDT WED JUL 26 2017

...IN SOUTHWEST TEXAS AND SOUTHEAST NEW MEXICO...

CITY           SKY/WX    TMP DP  RH WIND       PRES   REMARKS
ALPINE         SUNNY     88  56  33 SE3       30.24F
ANDREWS        FAIR      94  60  32 S15G22    30.10F
ARTESIA        SUNNY     97  59  28 E14       30.06F
BIG SPRING     SUNNY     95  59  30 S14G22    30.10F
CARLSBAD       SUNNY     95  63  34 VRB6      30.06F
DRYDEN           N/A     93  62  35 SE14G22   30.06F
FORT STOCKTON  SUNNY     95  61  32 SE13G20   30.08F
GUAD PASS      RAIN      82  65  56 NW12      30.25F
HOBBS          MOSUNNY   91  59  33 SE12      30.12F
MARFA          SUNNY     86  60  41 CALM      30.22F
MIDLAND AIRPK  SUNNY     94  57  29 SE15      30.09F
MIDLAND INTL   SUNNY     93  59  31 S17G24    30.09F
ODESSA         SUNNY     93  61  34 SE16G24   30.10F
PECOS          SUNNY     96  60  29 N7        30.03F
PRESIDIO       FAIR      95  59  29 SE3       30.07F
SEMINOLE       SUNNY     94  57  28 SE12G18   30.11F
SNYDER         SUNNY     94  61  33 S9G22     30.08F
WINK           SUNNY     96  61  31 VRB5      30.05F
$$
...OTHER STATIONS IN TEXAS...

CITY           SKY/WX    TMP DP  RH WIND       PRES   REMARKS
ABILENE        SUNNY     96  65  35 S16G23    30.06F
AMARILLO       SUNNY     98  58  26 S16G24    30.08F
AUSTIN         MOSUNNY   97  66  36 S14G21    30.06F HX 100
BROWNSVILLE    MOSUNNY   91  72  53 S14G22    30.04F
CORPUS CHRISTI MOSUNNY   94  74  52 SE13G24   30.04F HX 104
DALLAS FTW     MOSUNNY   95  72  47 SW14G20   30.03F HX 103
DEL RIO        SUNNY     97  62  31 SE17G25   30.01F
EL PASO        MOSUNNY   94  62  34 VRB6      30.11F
HOUSTON INT    MOSUNNY   94  74  52 S6        30.08F HX 104
LUBBOCK        MOSUNNY   94  59  31 S17G24    30.09F
SAN ANGELO     SUNNY     96  59  29 S12       30.07F
SAN ANTONIO    MOSUNNY   98  64  32 SW14G20   30.07F HX 100
WACO           SUNNY     98  67  36 S15G21    30.05F HX 102
WICHITA FALLS  NOT AVBL
$$
...OTHER LOCATIONS IN NEW MEXICO...

CITY           SKY/WX    TMP DP  RH WIND       PRES   REMARKS
ALAMOGORDO     MOSUNNY   93  55  27 NW8       30.13F
ALBUQUERQUE    PTSUNNY   88  55  32 VRB7G20   30.24F
CANNON AFB     SUNNY     93  56  28 SW7       30.13F
CLOVIS         MOSUNNY   92  59  33 VRB5      30.13F
HOLLOMAN AFB   SUNNY     99  55  22 NW7       30.13F
ROSWELL        SUNNY     98  58  26 NE12      30.07F
RUIDOSO        MOSUNNY   82  54  36 N10G16    30.37F
SANTA FE       CLOUDY    85  55  35 VRB3      30.30F
TRUTH OR CONSE SUNNY     90  32  12 VRB3      30.18F
TUCUMCARI      SUNNY     97  55  24 W8        30.06F
$$




USA.gov is the U.S. government's official web portal to all federal, state and local government web resources and services.